This is the latest recevied weather packets stored in our database for station/object G4KVI. If no packets are shown the sender has not sent any weather packets the latest 10 day(s).
| Time | Temp. | Humidity | Pressure | Rain* | Wind** | Luminosity | Snow |
|---|---|---|---|---|---|---|---|
| 1787566505 | 18.89° C | 59% | 1021.4 hPa | 0 mm | - | 379 W/m² | - |
| 1787566205 | 18.89° C | 59% | 1021.4 hPa | 0 mm | - | 280 W/m² | - |
| 1787565905 | 18.33° C | 60% | 1021.4 hPa | 0 mm | - | 524 W/m² | - |
| 1787565605 | 18.33° C | 61% | 1021.7 hPa | 0 mm | - | 519 W/m² | - |
| 1787565305 | 18.33° C | 62% | 1021.3 hPa | 0 mm | - | 382 W/m² | - |
| 1787565005 | 17.78° C | 62% | 1021.7 hPa | 0 mm | - | 460 W/m² | - |
| 1787564705 | 17.78° C | 62% | 1021.8 hPa | 0 mm | - | 266 W/m² | - |
| 1787564405 | 17.78° C | 63% | 1021.8 hPa | 0 mm | - | 476 W/m² | - |
| 1787564104 | 17.78° C | 63% | 1021.8 hPa | 0 mm | - | 373 W/m² | - |
| 1787563805 | 17.78° C | 63% | 1022 hPa | 0 mm | - | 278 W/m² | - |
| 1787563505 | 17.78° C | 63% | 1021.8 hPa | 0 mm | - | 343 W/m² | - |
| 1787563205 | 17.78° C | 62% | 1021.8 hPa | 0 mm | - | 434 W/m² | - |
| 1787562905 | 17.78° C | 63% | 1022.1 hPa | 0 mm | - | 393 W/m² | - |
| 1787562605 | 17.78° C | 62% | 1021.9 hPa | 0 mm | - | 386 W/m² | - |
| 1787562305 | 17.78° C | 63% | 1022.1 hPa | 0 mm | - | 445 W/m² | - |
| 1787562005 | 17.78° C | 64% | 1022.2 hPa | 0 mm | - | 528 W/m² | - |
| 1787561705 | 17.78° C | 65% | 1022 hPa | 0 mm | - | 397 W/m² | - |
| 1787561405 | 17.22° C | 67% | 1022.1 hPa | 0 mm | - | 519 W/m² | - |
| 1787561105 | 17.22° C | 67% | 1022.4 hPa | 0 mm | - | 421 W/m² | - |
| 1787560805 | 16.67° C | 68% | 1022.3 hPa | 0 mm | - | 405 W/m² | - |
| 1787560505 | 16.67° C | 69% | 1022.2 hPa | 0 mm | - | 399 W/m² | - |
| 1787560205 | 16.67° C | 70% | 1022.4 hPa | 0 mm | - | 375 W/m² | - |
| 1787559904 | 16.67° C | 70% | 1022.4 hPa | 0 mm | - | 366 W/m² | - |
| 1787559605 | 16.67° C | 71% | 1022.3 hPa | 0 mm | - | 350 W/m² | - |
| 1787559304 | 16.11° C | 71% | 1022.4 hPa | 0 mm | - | 338 W/m² | - |
* Rain latest hour (hover to see other rain measurements)
** Current wind speed in m/s (hover to see current wind gust speed)